Cotulla, TX

5:37 PM CST on November 13, 2019 (GMT -0600)
Cotulla-La Salle County

Weather History for KCOT - August, 2019

Change the Weather History Date:

Friday, August 16, 2019

  Actual Average Record
Temperature  
Mean Temperature 92 °F -  
Max Temperature 106 °F 96 °F 107 °F (2001)
Min Temperature 80 °F 73 °F 64 °F (2004)
Cooling Degree Days 28    
Growing Degree Days 42 (Base 50)    
Moisture  
Dew Point 66 °F    
Average Humidity 45    
Maximum Humidity 74    
Minimum Humidity 23    
Precipitation  
Precipitation 0.00 in - - ()
Sea Level Pressure  
Sea Level Pressure 29.85 in    
Wind  
Wind Speed 9 mph (SE)    
Max Wind Speed 18 mph    
Max Gust Speed 25 mph    
Visibility 10 miles    
Events      
Averages and records for this station are not official NWS values.
T = Trace of Precipitation, MM = Missing Value Source: NWS Daily Summary

Daily Weather History Graph

Daily Weather History Graph

Search for Another Location

Airport or City:

Astronomy

Aug. 16, 2019 Rise Set
Actual Time 7:06 AM CDT 8:15 PM CDT
Civil Twilight 6:42 AM CDT 8:39 PM CDT
Nautical Twilight 6:12 AM CDT 9:08 PM CDT
Astronomical Twilight 5:42 AM CDT 9:39 PM CDT
Moon 9:18 PM CDT (8/16) 7:59 AM CDT (8/16)
Length of Visible Light 13h 57m
Length of Day
13h 08m
Full, 99% of the Moon is Illuminated
Aug 16
Full
Aug 23
Last Quarter
Aug 30
New
Sep 5
First Quarter
Sep 13
Full

Hourly Weather History & Observations

Time (CDT) Temp. Heat Index Dew Point Humidity Pressure Visibility Wind Dir Wind Speed Gust Speed Precip Events Conditions
12:53 AM 88.0 °F 90.7 °F 66.9 °F 49% 29.90 in 10.0 mi SE 9.2 mph - N/A   Clear
1:53 AM 86.0 °F 88.8 °F 66.9 °F 53% 29.89 in 10.0 mi SSE 10.4 mph - N/A   Clear
2:53 AM 84.9 °F 88.2 °F 68.0 °F 57% 29.89 in 10.0 mi SSE 8.1 mph - N/A   Clear
3:53 AM 82.9 °F 85.8 °F 68.0 °F 60% 29.88 in 10.0 mi SE 6.9 mph - N/A   Clear
4:53 AM 82.0 °F 85.5 °F 69.1 °F 65% 29.87 in 10.0 mi SE 5.8 mph - N/A   Clear
5:53 AM 81.0 °F 84.4 °F 70.0 °F 69% 29.88 in 10.0 mi ESE 6.9 mph - N/A   Clear
6:53 AM 80.1 °F 83.6 °F 71.1 °F 74% 29.89 in 10.0 mi East 4.6 mph - N/A   Clear
7:53 AM 81.0 °F 84.9 °F 71.1 °F 72% 29.91 in 10.0 mi ESE 6.9 mph - N/A   Clear
8:53 AM 84.0 °F 89.6 °F 72.0 °F 67% 29.92 in 10.0 mi ESE 6.9 mph - N/A   Clear
9:53 AM 88.0 °F 92.9 °F 70.0 °F 55% 29.92 in 10.0 mi SE 8.1 mph - N/A   Clear
10:53 AM 91.9 °F 95.4 °F 66.9 °F 44% 29.93 in 10.0 mi SE 5.8 mph - N/A   Clear
11:53 AM 96.1 °F 98.3 °F 64.0 °F 35% 29.92 in 10.0 mi SE 8.1 mph - N/A   Clear
12:53 PM 100.9 °F 104.0 °F 64.0 °F 30% 29.90 in 10.0 mi North - - N/A   Clear
1:53 PM 102.9 °F 106.1 °F 64.0 °F 28% 29.87 in 10.0 mi SE 10.4 mph 16.1 mph N/A   Scattered Clouds
2:53 PM 102.0 °F 104.6 °F 63.0 °F 28% 29.85 in 10.0 mi ESE 8.1 mph - N/A   Mostly Cloudy
3:53 PM 104.0 °F 105.3 °F 61.0 °F 24% 29.81 in 10.0 mi Variable 5.8 mph - N/A   Clear
4:53 PM 105.1 °F 106.4 °F 60.1 °F 23% 29.78 in 10.0 mi East 11.5 mph - N/A   Partly Cloudy
5:53 PM 102.9 °F 103.0 °F 59.0 °F 23% 29.76 in 10.0 mi ESE 9.2 mph - N/A   Clear
6:53 PM 102.0 °F 102.2 °F 59.0 °F 24% 29.75 in 10.0 mi ESE 11.5 mph - N/A   Partly Cloudy
7:53 PM 100.9 °F 101.0 °F 59.0 °F 25% 29.75 in 10.0 mi SE 12.7 mph - N/A   Clear
8:53 PM 98.1 °F 98.1 °F 60.1 °F 28% 29.77 in 10.0 mi SE 18.4 mph 25.3 mph N/A   Clear
9:53 PM 93.0 °F 96.4 °F 66.9 °F 42% 29.79 in 10.0 mi SE 17.3 mph - N/A   Clear
10:53 PM 90.0 °F 93.6 °F 68.0 °F 48% 29.82 in 10.0 mi SSE 13.8 mph 23.0 mph N/A   Clear
11:53 PM 87.1 °F 91.3 °F 69.1 °F 55% 29.85 in 10.0 mi SSE 15.0 mph 19.6 mph N/A   Clear